CAPE
767 1084 2312 2285 2147 1979 2342 2206 2148 2141 2204 2040 2034 2170 1956 2346 2501 2538 2538 2429 2415 2516 2304 1973 1862 1867 1958 2272 2480 2561 2641 2417 2114 2755 2357 2127 2578 2976 2861 1839 1670 1216 2114
758 1143 2350 2427 2607 2559 2340 2378 2329 2317 2378 2320 2171 2184 1996 1691 2017 2398 2443 1938 1801 1971 1522 1606 1723 1797 1778 2123 2211 2460 2308 2949 2848 2133 2074 2148 2161 2131 3616 2846 2800 2899 2808
869 1187 1510 2553 2676 2403 2454 2582 2540 2469 2449 2425 2351 2132 2066 1390 1486 1798 1953 1937 1896 1782 1595 1551 1672 1876 1471 1510 1971 2281 2287 2067 1944 1994 2107 1792 1995 2124 2937 2863 2856 2781 2911
891 948 1200 2377 2385 2353 2698 2740 2519 2276 1910 2374 2272 2127 1966 1503 1439 1344 1256 1248 1443 1455 1558 1646 1632 1883 1788 1571 1779 1747 2061 1858 1820 1300 997 1253 1272 2017 2159 2647 2868 2659 2657
592 883 1683 2500 2287 2587 2575 2702 2581 2225 1882 1783 1299 1286 1174 1497 1534 1424 1420 1356 1263 1314 1265 1320 1557 1681 1789 1610 1850 1713 1486 1278 1089 807 294 773 1039 1852 2078 2183 2051 2160 2781
632 993 2305 2629 1959 2319 2021 1900 1262 852 1263 632 268 114 38 326 31 179 955 1102 990 1117 1199 1530 1364 1478 1506 1321 1690 1459 628 535 292 359 478 775 766 1605 1876 1858 1690 1875 2271
535 970 1832 2618 2438 2266 2298 2187 1999 1034 722 523 355 261 286 217 87 393 554 842 829 1068 1286 1411 1586 1508 1434 1534 1590 1385 560 182 97 470 372 276 787 1368 1426 1689 1838 1893 1867
513 419 1571 1673 2177 1850 1927 1311 1155 713 1121 867 364 57 113 183 199 229 141 507 891 1053 1284 1572 1691 1837 1819 1426 1530 590 216 224 82 138 531 586 1308 1320 1005 731 1622 1769 1807
450 1208 767 550 1624 1282 822 567 360 163 875 611 124 69 38 318 435 248 319 442 1163 1272 1307 1678 1633 1325 1499 1335 1028 1134 449 525 481 356 689 743 1388 1291 688 898 840 1423 1760
628 777 805 581 1320 1191 354 207 197 229 240 71 81 237 202 21 135 194 202 718 1065 1356 1303 1245 1436 1508 1552 1300 1418 1236 1207 1335 965 675 58 96 1172 873 792 657 510 763 1164
924 976 592 645 1074 1560 568 519 396 216 278 20 43 162 138 333 482 184 240 559 1135 1535 1079 1055 1495 1608 1581 1658 1343 1347 1177 643 772 235 0 13 810 598 679 313 186 570 585
1099 1046 764 1134 822 602 110 1308 1234 428 977 221 137 40 180 173 425 489 578 759 1367 1734 1466 1179 1441 1693 1698 1222 1017 1115 897 539 798 525 336 1125 956 824 679 376 312 463 622
641 974 1383 1463 2166 573 743 739 1205 674 512 118 92 92 219 98 57 245 448 954 906 1301 801 733 331 848 1147 1317 1412 975 1080 924 1033 654 790 1381 1213 1059 959 686 653 631 733
848 905 910 1325 1731 1537 1721 1345 856 217 118 93 80 94 423 33 99 503 513 363 1093 712 386 127 98 147 1629 1788 1562 1034 973 116 195 838 466 1385 1501 721 712 914 976 948 937
688 663 642 1537 1728 1525 1848 1639 936 514 473 172 15 161 267 228 332 738 594 341 1281 977 461 689 144 889 2082 1495 1405 1876 1227 1280 240 517 346 706 1170 659 755 953 1202 1143 933
881 1087 743 1301 1981 1827 1682 1617 1372 1051 693 902 594 517 348 345 982 427 892 975 1458 1805 239 358 988 2127 2359 1437 2182 1736 1191 1406 392 692 435 704 772 1030 1140 806 1185 1387 1323
768 1045 1201 1485 1384 1642 1802 1734 1348 1174 792 500 823 654 365 638 684 1065 770 1902 1462 2254 2244 1270 175 400 2169 1583 2198 2242 1973 1836 764 680 488 340 644 941 1619 1078 1607 1667 1277
826 1113 1515 1065 994 1401 1344 2174 1454 1043 473 1806 900 572 317 732 355 1458 1690 696 2334 2767 1535 2115 287 729 1138 826 900 2559 1246 1578 851 797 620 521 640 703 1575 1893 1849 1857 1357
1430 1403 1536 1726 1066 1597 1890 2254 1634 1303 856 834 1621 618 893 519 632 1995 1510 1967 2610 2176 63 223 880 684 647 298 71 1437 1459 1754 1024 226 334 461 786 938 942 1760 2017 2242 1477
1379 1816 1653 1520 1670 1980 1769 1880 1423 1353 1179 1273 1307 1064 680 593 1313 2202 1760 307 2080 2656 1354 1757 2793 2195 662 9 441 1147 575 1447 1401 390 271 321 587 726 803 1096 1731 1481 1974
1500 1646 1585 1514 1795 2295 1379 1263 1165 1088 760 608 1005 260 1392 1204 1355 2277 1730 2044 2911 2625 2 161 2472 93 598 1451 857 470 1657 1395 1777 1211 590 401 91 433 1003 918 1199 912 1270
1753 2059 2255 2369 2923 2218 2433 1323 1463 1451 1489 445 1140 1350 1334 1286 1781 1983 2058 898 2656 2598 1742 2364 2278 1808 873 2512 88 195 358 1455 779 678 571 584 66 400 1003 912 743 553 613
1805 2186 2754 2640 2877 2492 1809 1570 1579 1838 1551 1101 1145 757 417 1153 1925 2483 784 2 2695 2563 1738 2527 2373 1338 531 1394 439 1595 365 169 274 943 1000 951 412 439 808 865 915 612 716
1698 2086 3229 3075 2765 2470 2306 1733 1563 1152 945 949 1143 1085 1034 1595 2057 2288 2877 2296 2854 2303 526 1841 2662 2361 2420 1566 1343 1958 1839 102 597 933 2150 2015 1471 1156 694 902 675 1212 1118
1780 1949 2894 3270 3195 3098 2672 2379 1958 2158 1652 1219 1115 1509 1518 2134 2433 2278 2717 2952 3094 2665 2265 2683 2852 2585 2497 1991 331 357 2819 2373 2531 685 228 198 1869 1635 944 1559 814 873 1395
1385 1629 2461 3555 3381 3240 2647 2441 2336 2200 1764 1042 1252 1219 1297 1611 2116 2897 2510 2882 3551 2876 2898 3355 3481 3045 2824 2838 2545 2870 1200 1050 337 669 333 314 319 477 0 363 533 885 1297
CIN
-35 -32 -0 -0 -0 -0 -0 -0 -0 -0 -0 -0 -0 -0 -0 -0 -0 -0 -0 -0 -0 -0 -0 -0 -1 -1 -0 -0 -0 -0 -0 -1 -7 -0 -0 -2 -0 -0 -0 -8 -12 -31 -0
-65 -29 -0 -0 -0 -0 -0 -0 -0 -0 -0 -0 -0 -0 -0 -0 -0 -0 -0 -0 -0 -0 -0 -0 -0 -0 -0 -0 -0 -0 -0 -0 -0 -1 -2 -0 -0 -0 -0 -0 -0 -0 -0
-44 -31 -4 -0 -0 -0 -0 -0 -0 -0 -0 -0 -0 -0 -0 -0 -0 -0 -0 -0 -0 -0 -0 -0 -0 -0 -0 -0 -0 -0 -0 -0 -0 -0 -0 -7 -13 -0 -0 -1 -0 -0 -0
-32 -21 -9 -0 -0 -0 -0 -0 -0 -0 -0 -0 -0 -0 -0 -0 -0 -0 -0 -0 -0 -0 -0 -0 -0 -0 -0 -0 -0 -0 -2 -2 -1 -10 -14 -24 -13 -4 -0 -0 -0 -0 -1
-24 -13 -0 -0 -0 -0 -0 -0 -0 -0 -0 -0 -0 -0 -0 -0 -0 -0 -0 -0 -0 -0 -0 -0 -0 -0 -0 -0 -0 -0 -1 -7 -12 -24 -72 -34 -39 -0 -0 -0 -7 -0 -0
-22 -13 -0 -0 -0 -0 -0 -0 -0 -4 -0 -7 -13 -47 -82 -32 -73 -35 -11 -3 -1 -0 -0 -0 -0 -0 -0 -0 -0 -0 -34 -58 -83 -27 -46 -22 -24 -5 -9 -4 -15 -1 -0
-33 -14 -0 -0 -0 -0 -0 -0 -0 -0 -3 -8 -11 -17 -23 -35 -64 -19 -13 -6 -6 -2 -0 -1 -0 -0 -0 -0 -0 -11 -67 -117 -174 -86 -32 -68 -14 -13 -2 -2 -5 -10 -3
-26 -33 -0 -0 -0 -0 -0 -1 -0 -2 -0 -1 -25 -69 -47 -35 -39 -20 -28 -8 -6 -1 -1 -0 -0 -0 -0 -0 -1 -34 -84 -104 -146 -165 -73 -60 -16 -15 -10 -3 -8 -13 -10
-14 -3 -12 -32 -0 -0 -11 -31 -30 -18 -0 -3 -26 -35 -47 -13 -23 -21 -23 -8 -1 -0 -0 -0 -0 -0 -0 -1 -0 -1 -50 -46 -76 -115 -36 -40 -15 -18 -1 -4 -6 -16 -19
-6 -7 -14 -32 -0 -2 -46 -66 -41 -36 -9 -41 -27 -11 -91 -91 -65 -25 -21 -13 -1 -0 -0 -0 -0 -2 -2 -1 -0 -1 -4 -2 -25 -4 -158 -161 -17 -6 -3 -3 -12 -23 -28
-2 -6 -7 -33 -3 -0 -22 -4 -17 -61 -3 -61 -64 -14 -22 -46 -23 -16 -17 -2 -1 -0 -3 -1 -0 -0 -8 -4 -6 -4 -2 -44 -17 -63 -0 -203 -47 -11 -8 -12 -2 -8 -31
-6 -16 -12 -5 -12 -40 -83 -1 -0 -12 -0 -30 -32 -88 -50 -42 -8 -7 -18 -14 -5 -9 -5 -6 -9 -9 -8 -75 -57 -13 -17 -61 -42 -79 -81 -20 -18 -11 -5 -0 -2 -0 -13
-27 -19 -3 -3 -0 -39 -5 -5 -0 -2 -0 -23 -26 -58 -34 -62 -75 -84 -39 -9 -46 -38 -30 -83 -120 -86 -55 -28 -52 -97 -64 -20 -33 -52 -29 -30 -0 -11 -1 -0 -1 -4 -18
-4 -8 -20 -10 -5 -2 -4 -2 -0 -57 -65 -55 -63 -51 -15 -90 -59 -22 -49 -71 -46 -43 -109 -186 -219 -190 -46 -13 -13 -75 -69 -189 -160 -17 -101 -33 -0 -15 -15 -0 -1 -14 -40
-29 -38 -30 -4 -4 -12 -7 -5 -7 -16 -11 -43 -134 -37 -23 -49 -47 -32 -61 -88 -12 -75 -127 -70 -190 -89 -23 -30 -20 -18 -30 -14 -95 -72 -101 -85 -33 -28 -21 -0 -0 -5 -47
-5 -5 -47 -9 -0 -2 -7 -6 -10 -8 -12 -8 -13 -21 -36 -61 -29 -96 -55 -21 -27 -16 -118 -105 -124 -24 -36 -40 -14 -20 -43 -33 -65 -54 -93 -82 -67 -28 -16 -22 -2 -0 -10
-35 -35 -17 -9 -2 -2 -3 -5 -17 -18 -0 -17 -15 -15 -34 -32 -48 -56 -55 -16 -48 -40 -51 -88 -229 -216 -30 -36 -8 -5 -18 -25 -25 -64 -78 -105 -83 -45 -8 -23 -0 -0 -30
-25 -29 -13 -6 -0 -7 -2 -2 -16 -30 -7 -5 -21 -26 -46 -30 -83 -25 -21 -48 -13 -23 -87 -42 -253 -183 -52 -172 -148 -8 -36 -28 -25 -14 -36 -91 -79 -61 -9 -0 -0 -0 -14
-11 -24 -10 -7 -25 -9 -3 -1 -12 -7 -22 -14 -4 -30 -15 -45 -52 -14 -33 -48 -20 -60 -170 -242 -100 -128 -109 -147 -212 -46 -82 -34 -32 -19 -31 -56 -54 -44 -63 -7 -0 -0 -3
-26 -26 -31 -34 -44 -18 -15 -7 -20 -12 -5 -6 -12 -13 -18 -34 -32 -11 -30 -168 -46 -21 -79 -62 -19 -36 -110 -78 -139 -69 -238 -58 -43 -40 -26 -22 -40 -59 -57 -60 -10 -8 -0
-28 -39 -47 -40 -26 -5 -31 -26 -16 -8 -5 -11 -13 -59 -2 -12 -29 -12 -24 -32 -7 -24 -133 -231 -23 -243 -217 -73 -135 -129 -52 -39 -41 -55 -45 -34 -58 -26 -33 -67 -50 -50 -35
-22 -22 -30 -14 -5 -12 -9 -36 -16 -16 -9 -37 -1 -3 -8 -28 -24 -7 -29 -131 -16 -18 -70 -24 -36 -24 -95 -37 -240 -193 -58 -37 -80 -120 -94 -51 -53 -32 -43 -71 -80 -89 -85
-11 -5 -17 -25 -5 -6 -18 -23 -10 -2 -12 -1 -8 -12 -69 -33 -2 -2 -107 -92 -30 -35 -50 -32 -29 -109 -155 -95 -212 -76 -51 -87 -103 -119 -94 -75 -119 -53 -31 -43 -37 -54 -69
-10 -6 -3 -11 -11 -2 -2 -14 -9 -4 -0 -0 -12 -4 -14 -18 -5 -6 -5 -26 -16 -20 -155 -62 -22 -37 -30 -33 -118 -25 -23 -278 -79 -28 -29 -27 -37 -14 -25 -58 -39 -25 -38
-9 -16 -4 -15 -9 -1 -0 -1 -7 -3 -11 -7 -2 -9 -15 -7 -4 -5 -7 -9 -4 -18 -19 -6 -5 -11 -35 -32 -187 -227 -15 -39 -26 -107 -120 -153 -32 -59 -92 -53 -100 -38 -44
-27 -16 -6 -29 -10 -0 -0 -0 -2 -2 -13 -27 -33 -8 -19 -4 -5 -6 -10 -13 -2 -7 -9 -7 -3 -4 -9 -26 -45 -39 -100 -80 -140 -100 -121 -78 -38 -171 -0 -196 -183 -70 -53
Wind_Speed
16 17 16 15 17 17 17 17 16 16 15 14 13 14 13 14 14 14 14 13 11 11 11 10 10 9 9 9 10 12 13 15 15 16 16 15 11 13 12 17 18 14 16
20 18 17 16 17 18 17 17 16 15 15 15 13 13 13 13 12 12 12 12 10 10 11 10 10 10 9 8 9 11 12 12 13 15 16 14 12 10 14 15 18 13 15
20 18 17 16 16 17 18 17 16 16 14 13 14 12 12 12 11 10 9 9 8 8 8 8 9 9 9 8 8 10 11 12 11 12 14 7 5 10 15 19 16 18 16
21 17 16 15 15 18 18 17 16 15 15 12 13 12 11 10 9 8 6 5 4 5 5 6 7 9 9 8 8 8 10 9 10 8 2 7 7 11 13 16 15 16 18
19 19 17 16 16 18 20 18 17 15 14 14 13 12 9 8 6 4 4 4 4 3 3 4 5 7 9 8 10 9 10 7 3 2 3 2 2 10 14 14 14 12 16
19 19 16 18 17 18 17 18 20 19 18 16 15 14 5 6 5 2 2 2 3 3 3 4 5 6 8 10 12 12 9 5 3 4 3 5 7 12 15 14 15 12 14
19 17 16 18 17 17 18 18 20 19 16 16 13 11 8 3 1 1 4 2 3 4 4 4 6 8 9 12 14 12 10 5 2 5 8 7 9 15 16 15 15 13 13
18 18 16 16 19 18 19 19 19 17 17 17 14 10 5 3 2 4 5 5 2 4 4 6 7 8 11 13 14 11 9 8 7 5 7 4 11 18 17 17 16 15 13
17 18 15 13 14 17 17 17 17 15 15 15 13 8 5 1 3 6 7 6 4 3 4 6 5 6 7 10 13 13 11 11 6 4 6 2 14 17 18 16 15 15 14
15 15 14 11 11 10 10 14 13 14 11 13 10 8 6 1 5 8 8 9 6 3 5 5 6 7 7 8 12 13 15 15 10 3 9 6 11 14 18 18 16 15 14
9 14 15 13 10 9 6 9 10 12 10 10 9 6 7 4 5 8 9 5 8 7 7 8 8 8 5 9 12 14 15 7 8 9 12 17 14 13 14 16 21 17 15
11 6 10 9 11 11 8 8 8 7 5 4 4 3 2 1 2 5 10 12 11 10 10 8 9 10 10 6 6 9 5 7 5 11 9 20 16 14 15 15 21 18 16
13 10 10 11 7 11 7 6 3 5 4 3 5 3 3 1 2 4 5 7 7 10 4 2 5 6 9 8 7 8 10 2 1 6 8 17 17 15 15 15 17 18 17
19 14 12 13 9 9 5 5 6 5 5 4 3 4 3 2 5 7 7 8 8 5 6 4 7 10 13 5 5 10 7 9 3 4 7 16 16 15 11 11 12 15 17
14 13 12 12 9 6 6 5 6 5 6 7 5 6 5 4 6 5 5 7 2 8 6 4 9 11 6 4 5 4 3 2 12 6 5 15 13 12 13 11 12 13 15
13 14 7 11 10 8 6 6 7 7 7 5 5 5 7 4 6 6 6 5 3 1 7 7 4 4 4 4 5 4 4 4 9 11 7 7 11 9 11 11 12 13 12
11 11 12 6 11 11 10 8 6 7 7 5 5 6 5 6 7 7 8 1 3 3 7 9 6 8 5 6 5 3 5 5 10 11 10 7 7 10 9 10 10 10 11
11 16 13 10 11 10 6 4 4 4 3 5 5 5 8 8 8 9 5 2 4 4 3 2 6 3 4 6 7 3 3 3 5 6 10 10 8 7 8 11 11 11 11
14 10 10 9 13 12 8 5 6 6 3 6 4 5 7 7 9 6 3 2 4 4 2 5 5 7 4 2 4 2 3 3 5 5 10 12 12 9 8 12 12 12 14
13 12 11 5 7 8 5 5 4 5 5 4 5 5 5 6 9 5 3 5 8 1 2 3 3 2 5 5 6 2 7 2 3 4 4 8 11 11 11 11 8 8 14
15 16 12 8 11 7 7 7 4 7 6 5 6 6 10 7 10 7 3 4 4 2 3 4 3 5 7 4 4 4 4 5 5 4 5 4 6 11 11 10 8 7 9
17 14 12 10 9 7 5 5 5 4 6 4 5 6 6 8 8 6 4 8 5 1 7 6 3 3 2 2 4 4 5 4 3 6 2 0 8 6 11 13 12 11 9
17 14 13 10 9 7 6 5 4 4 4 5 5 4 5 9 7 5 8 6 6 3 3 4 4 6 5 4 11 5 5 3 4 5 8 6 6 4 7 10 13 12 11
14 12 10 11 10 9 7 6 7 7 7 7 7 8 9 10 9 9 7 9 7 0 6 8 5 4 3 4 4 3 3 8 5 2 2 4 8 5 5 5 6 8 10
15 12 11 11 10 8 8 8 6 5 4 6 7 7 9 9 8 12 10 7 5 4 5 1 1 2 2 1 3 2 4 3 0 6 3 6 4 3 5 5 5 6 7
9 9 11 13 10 10 10 10 8 6 7 5 5 6 6 7 6 5 7 5 5 3 4 4 2 1 1 4 3 3 3 2 2 4 2 1 3 3 6 8 7 5 7
Wind_Direction
128 129 130 130 130 131 128 125 123 124 121 118 112 106 95 92 91 88 94 101 107 111 106 99 90 85 85 91 93 93 95 100 99 104 106 104 98 100 108 108 105 102 99
129 132 133 132 136 138 133 130 130 128 125 122 120 115 113 109 111 113 116 116 113 109 106 101 94 91 87 93 103 110 105 103 113 115 116 109 105 95 102 105 99 105 101
129 132 135 131 134 136 133 134 133 129 127 128 125 122 125 123 118 117 111 114 117 112 110 109 107 105 96 103 116 121 120 119 120 128 132 113 113 104 103 109 112 114 106
129 141 135 128 133 137 139 136 133 130 128 128 121 127 128 133 132 130 133 129 129 130 127 120 123 116 114 115 117 135 128 136 144 153 235 132 136 128 117 116 114 115 111
139 128 125 131 131 134 138 136 132 129 125 116 115 109 103 115 115 143 158 162 167 166 166 152 139 134 128 130 120 108 100 95 111 126 60 153 117 139 134 127 122 131 115
124 119 133 127 126 128 132 133 125 131 125 117 113 111 131 106 113 62 25 163 214 199 181 177 140 144 138 152 139 124 104 85 9 282 220 212 175 160 143 135 121 116 116
121 126 133 125 126 121 128 129 129 130 131 126 129 134 133 157 173 329 357 329 208 197 168 187 160 152 148 147 145 142 153 173 287 319 317 329 168 161 148 141 130 123 121
129 137 128 131 125 127 122 121 124 117 124 131 124 113 104 163 252 297 298 309 248 188 177 184 175 168 165 156 161 180 191 213 241 265 268 282 179 160 163 164 144 133 129
141 127 140 145 135 132 123 123 123 127 117 122 123 137 162 72 342 303 289 288 244 201 194 202 167 173 169 186 196 203 212 217 214 228 293 279 178 167 175 158 160 139 130
136 140 140 152 147 138 134 135 137 130 128 141 111 109 121 192 263 278 272 259 232 222 218 218 194 200 196 213 212 210 210 211 222 186 280 241 228 179 177 169 162 158 147
159 137 154 159 165 140 131 144 128 145 132 143 149 166 181 192 231 250 250 241 219 217 220 228 224 223 225 237 245 222 213 210 193 152 204 238 225 182 175 182 178 168 171
145 165 143 165 176 150 186 149 145 149 95 107 78 148 164 278 285 287 253 239 221 208 222 237 245 243 234 188 237 229 229 224 164 159 193 201 178 177 168 167 175 183 182
161 171 160 169 184 158 195 172 149 128 117 123 154 189 187 224 301 286 273 223 218 213 212 88 311 292 257 216 189 164 243 350 233 187 193 167 176 178 164 164 167 176 185
169 162 168 155 179 183 172 144 151 140 155 159 171 248 170 213 224 241 227 237 215 163 113 73 274 268 244 196 175 200 205 162 219 160 157 171 171 164 167 177 175 177 182
140 153 188 151 171 182 144 152 151 172 165 165 177 203 219 208 247 261 275 266 134 141 109 251 221 247 237 223 214 190 245 212 186 155 160 178 165 169 177 186 190 180 179
169 146 134 158 154 167 165 173 175 175 168 165 172 186 220 228 263 275 270 240 156 121 93 251 255 259 251 259 147 204 190 285 144 135 138 162 159 180 174 182 187 190 188
138 150 159 166 160 173 183 176 174 156 163 162 171 178 204 236 253 264 268 302 317 107 180 216 19 322 312 333 142 205 183 208 136 139 146 149 157 180 175 174 178 187 189
164 157 164 179 175 164 178 154 179 199 178 156 173 178 203 223 234 262 280 148 252 95 14 332 172 251 30 13 292 215 197 172 118 146 151 148 157 172 194 190 189 198 200
159 154 169 186 174 166 171 153 186 164 144 164 171 179 205 218 240 252 275 9 297 122 95 264 281 141 76 81 321 299 233 173 163 190 155 154 166 159 172 194 201 202 207
150 162 172 179 151 147 158 170 171 157 183 144 162 184 201 224 245 249 257 182 258 165 47 293 38 333 135 223 175 230 299 179 205 126 160 179 161 166 171 168 181 193 204
156 169 175 171 164 163 163 172 164 195 162 189 170 186 186 210 236 234 289 257 204 269 82 313 316 71 317 208 38 36 247 196 184 167 170 184 154 167 149 162 180 197 198
167 168 159 167 167 174 178 178 186 191 154 171 162 173 197 229 245 219 90 304 238 58 164 208 343 52 289 26 86 65 349 335 37 14 67 318 174 149 164 172 184 200 180
162 165 153 152 174 168 190 169 197 157 150 166 155 175 227 232 214 211 137 249 267 255 278 159 123 84 302 306 162 161 152 249 320 174 225 196 190 201 161 172 195 185 178
158 151 151 156 169 170 174 178 189 179 177 177 179 190 208 232 203 179 201 207 227 22 96 250 163 193 225 276 33 7 125 160 203 212 272 185 191 160 190 176 183 177 170
141 151 154 155 162 160 171 182 206 187 187 193 193 176 203 204 211 191 190 197 221 244 260 204 151 152 201 103 132 280 203 182 15 65 347 320 277 141 107 201 192 185 178
128 153 153 149 164 169 179 186 207 190 185 197 202 203 190 204 216 226 180 188 212 247 299 305 291 277 43 334 315 310 105 85 343 64 170 210 255 355 348 308 169 235 182